SCP
0 0 0 0 0 -0 0 0 0 0 -0 -0 -0 -0 -0 -0 -0 -0 -0 0 0 -0 0 -0 -0 -0 -0 -0 -0 0 -0 -0 -0 -0 -0 0 0 -0
0 0 0 0 0 0 0 0 0 0 0 -0 -0 -0 -0 -0 -0 -0 -0 -0 -0 -0 -0 -0 -0 -0 -0 -0 -0 0 0 0 0 0 0 0 0 -0
0 0 0 0 0 0 0 0 0 0 0 0 -0 -0 -0 -0 -0 -0 -0 -0 -0 -0 -0 0 -0 -0 -0 0 0 0 0 0 0 0 0 0 0 0
0 0 0 0 0 0 0 0 0 0 0 0 -0 -0 -0 -0 -0 -0 0 0 -0 -0 0 0 -0 0 0 0 0 0 0 0 0 0 0 0 0 0
0 0 0 0 0 0 0 0 0 0 0 0 0 0 0 0 0 -0 -0 -0 0 -0 0 0 0 0 0 0 0 0 0 0 0 0 0 0 0 0
0 0 0 0 0 0 0 0 0 0 0 0 0 0 0 0 0 0 0 -0 0 -0 -0 0 -0 -0 -0 0 0 0 0 0 0 0 0 0 0 0
0 0 0 0 0 0 0 0 0 0 0 0 0 0 0 0 0 0 0 0 -0 -0 0 0 0 -0 -0 -0 0 0 0 0 0 0 0 0 0 0
0 0 0 0 0 0 0 0 0 0 0 0 0 0 0 0 0 0 0 0 0 0 -0 0 0 -0 0 0 -0 -0 -0 0 0 0 0 0 0 0
0 0 0 0 0 0 0 0 0 0 0 0 0 0 0 0 0 0 0 0 -0 0 0 0 0 0 -0 0 -0 -0 -0 -0 0 0 0 0 0 0
0 0 0 0 0 0 0 0 0 0 0 0 0 0 0 0 0 0 0 0 0 -0 0 -0 -0 -0 -0 -0 -0 -0 -0 -0 -0 -0 -0 0 0 0
0 0 0 0 0 0 0 0 0 0 0 0 0 0 0 0 0 0 0 0 0 0 0 -0 -0 -0 -0 -0 0 -0 -0 -0 -0 -0 -0 -0 0 0
0 -0 0 0 0 0 0 1 0 0 0 0 0 0 0 0 0 0 0 0 0 0 0 0 0 0 -0 0 0 0 0 -0 -0 -0 -0 -0 -0 0
0 0 0 0 0 0 0 1 0 0 0 0 0 0 0 0 0 0 0 0 0 0 0 0 0 0 -0 0 0 0 0 0 0 0 0 -0 -0 -0
0 0 0 0 0 0 0 0 0 0 0 0 0 0 0 0 0 0 0 0 0 0 0 0 0 0 0 0 0 0 0 0 0 0 0 -0 -0 -0
0 0 0 0 0 0 0 0 0 0 0 0 0 0 0 0 0 0 0 0 0 0 0 0 0 0 0 0 0 0 0 0 0 0 0 0 0 0
0 0 0 0 0 0 0 0 0 0 0 0 0 0 0 0 0 0 0 0 0 0 0 0 0 0 0 0 -0 0 0 0 0 0 0 0 0 0
0 1 0 0 0 0 0 0 0 0 0 0 0 0 0 0 0 0 0 0 0 0 0 0 0 0 0 0 0 0 0 0 0 0 0 0 0 0
0 1 1 1 1 0 0 0 0 0 0 0 0 0 0 0 0 0 0 0 0 0 0 0 0 0 0 0 0 0 0 0 0 0 0 0 0 0
0 1 1 1 1 1 1 0 0 0 0 0 0 0 0 0 0 0 0 0 0 0 0 0 0 0 0 0 0 0 0 0 0 0 0 0 0 0
0 1 1 1 1 1 0 0 0 0 0 0 0 0 0 0 0 0 0 0 0 0 0 0 0 0 0 0 0 0 0 0 0 0 0 0 0 0
0 0 1 1 1 1 1 1 0 1 0 0 0 0 0 0 0 0 0 0 0 0 0 0 0 0 0 0 0 0 0 0 0 0 0 0 0 0
0 0 0 0 0 1 1 0 0 0 0 0 0 0 0 0 0 0 0 0 0 0 0 0 0 0 0 0 0 0 0 0 0 0 0 0 0 0
0 0 0 0 0 0 1 1 1 0 0 0 0 0 0 0 0 0 0 0 0 0 0 0 0 0 0 0 0 0 0 0 0 0 0 0 0 0
Wind_Speed_500mb
29 26 21 18 19 20 18 19 14 16 16 18 14 18 17 15 15 13 16 21 20 22 23 25 26 27 28 26 28 28 26 24 23 22 21 18 18 18
23 20 23 19 24 26 22 21 21 18 10 17 16 24 21 19 18 17 16 17 17 19 21 24 25 27 26 27 29 28 28 27 26 26 23 19 17 17
30 27 29 28 24 25 26 25 25 23 16 18 22 26 23 25 20 20 19 14 14 15 18 20 22 23 23 26 28 28 30 30 30 30 28 25 23 21
30 31 32 28 29 34 33 31 27 28 23 27 28 26 26 28 23 20 18 14 13 13 15 17 19 19 19 23 25 27 28 28 28 27 28 26 22 21
36 37 36 35 35 31 33 34 33 30 33 28 26 26 29 30 29 28 25 23 18 16 16 17 16 15 15 16 18 20 21 21 21 21 22 23 22 20
42 44 41 41 40 38 38 41 37 36 34 33 29 32 32 35 31 31 32 28 24 22 21 20 19 18 17 15 15 13 15 15 14 15 15 16 18 18
44 46 46 43 43 43 39 42 46 43 40 38 36 35 36 39 43 35 30 30 33 31 28 28 27 25 24 22 19 16 12 10 7 7 9 10 10 11
50 47 44 47 48 50 52 49 47 49 48 42 43 47 44 45 39 38 35 35 35 36 37 34 32 29 28 29 23 19 17 14 13 11 8 5 4 4
53 54 50 45 48 50 56 54 53 56 51 47 49 49 45 47 40 44 43 42 34 26 36 36 35 35 32 32 36 26 24 22 21 20 17 13 9 5
48 55 54 49 50 47 53 56 56 61 59 54 45 43 43 45 39 32 41 40 32 32 33 38 34 36 32 32 43 34 33 30 29 27 26 23 21 16
45 53 53 53 56 51 51 49 49 54 53 50 49 46 52 49 39 37 39 40 39 39 43 35 32 35 31 32 36 34 36 36 38 35 32 31 31 28
43 54 61 59 54 53 57 51 51 56 48 49 53 53 49 52 48 47 42 46 44 39 42 44 37 33 32 34 33 40 41 40 40 42 40 39 38 42
43 45 49 52 56 55 58 58 50 41 44 39 44 50 54 59 59 57 54 46 46 44 36 45 39 40 35 15 25 35 35 39 43 44 45 47 48 48
39 42 44 47 52 53 56 59 56 51 36 40 40 40 45 48 60 62 60 57 45 45 41 43 36 40 40 36 34 25 31 35 37 42 43 46 48 51
33 39 44 44 43 50 58 59 57 56 46 46 42 42 45 44 42 55 60 59 57 52 51 54 46 37 41 39 36 34 35 34 40 40 39 40 45 54
41 45 41 44 44 49 56 63 63 59 52 44 45 40 41 44 49 50 50 60 53 50 60 59 64 61 47 44 43 41 38 39 35 42 43 41 43 46
35 42 41 49 49 53 61 64 66 62 55 54 54 44 41 42 44 49 51 51 54 60 52 52 68 70 65 60 51 48 45 45 44 39 46 44 46 47
41 51 53 52 50 49 56 65 68 66 61 46 44 42 44 45 45 47 48 53 55 54 54 53 46 47 54 62 70 55 48 48 47 49 54 47 47 47
50 52 62 53 56 52 52 48 59 72 69 55 46 45 45 47 50 52 53 55 59 57 55 57 55 54 52 62 50 53 67 56 47 49 52 53 55 47
67 56 55 55 55 58 52 51 45 51 63 61 66 53 47 48 49 53 58 57 57 57 60 58 64 66 67 59 48 48 48 45 58 57 53 51 53 54
59 61 54 56 53 51 49 46 48 51 49 56 70 74 64 65 63 55 54 60 57 55 61 64 65 64 56 48 54 57 51 52 56 55 52 54 52 51
30 43 56 52 49 53 49 47 47 49 52 56 53 51 52 58 59 60 67 58 52 63 61 54 50 52 52 60 64 60 52 48 58 59 60 66 58 58
40 39 42 51 57 61 65 62 51 50 52 55 57 58 56 59 61 62 68 70 59 56 52 55 58 58 59 57 58 55 57 57 55 62 71 71 68 75
Wind_Direction_500mb
245 241 230 240 241 196 217 201 206 172 180 192 172 175 162 151 136 140 120 113 114 114 114 113 115 114 112 112 108 110 108 98 93 87 82 83 99 137
244 245 236 208 244 208 213 210 204 184 164 182 180 178 170 165 163 149 140 128 127 121 115 112 112 113 116 114 108 106 104 100 96 88 81 78 85 98
232 224 231 220 221 238 208 208 208 201 184 164 174 184 183 166 179 167 152 151 145 140 129 123 116 113 116 113 117 116 114 109 97 86 80 73 78 88
239 227 228 233 226 221 215 209 211 206 200 177 182 192 190 183 190 185 171 178 178 166 156 141 135 132 129 123 120 109 100 93 82 80 81 77 83 88
234 229 226 225 227 224 222 215 212 205 199 190 190 192 191 191 195 194 190 192 188 203 191 182 172 162 154 142 130 117 105 96 85 79 81 84 87 91
242 240 227 223 226 222 223 216 209 205 200 195 194 193 193 201 200 198 206 202 199 220 218 210 204 203 201 186 164 149 128 113 99 88 82 86 87 96
245 246 239 228 230 222 220 221 213 211 208 199 202 197 198 201 210 205 210 211 214 210 219 223 225 223 221 221 206 188 181 162 154 119 99 82 88 96
248 243 240 238 236 235 225 226 225 221 205 206 209 206 209 215 210 209 206 208 213 223 215 221 222 225 223 235 224 215 215 221 218 221 188 146 100 107
251 248 238 233 238 235 223 226 231 224 220 221 215 216 214 223 220 216 213 214 215 222 226 220 222 225 227 231 244 231 230 234 238 237 229 221 213 211
260 243 240 234 230 225 222 223 222 223 225 225 225 220 216 230 228 239 236 223 219 210 233 213 221 228 228 228 246 239 237 239 243 243 241 237 235 229
249 241 238 238 233 230 219 215 216 218 226 226 222 215 221 223 225 212 212 212 215 217 226 211 219 225 226 230 242 241 239 242 243 243 243 245 240 239
251 241 239 239 237 232 225 218 215 217 220 221 220 225 226 225 222 224 214 211 217 220 224 217 213 222 231 235 231 243 238 241 243 242 241 243 242 241
247 236 235 239 238 231 224 221 219 214 218 219 221 226 229 229 226 223 218 214 217 220 224 234 219 220 221 211 230 224 240 239 239 240 241 240 241 240
247 241 239 237 235 229 223 219 218 215 214 218 212 216 221 219 226 226 226 219 216 218 224 230 216 222 226 230 231 232 223 224 237 240 245 246 244 245
245 254 236 238 227 226 224 225 223 223 220 215 219 218 223 224 218 225 224 228 223 212 223 223 218 219 223 230 233 232 232 236 230 233 233 234 246 242
238 239 240 231 226 224 225 222 223 226 218 227 222 224 224 217 217 217 215 224 220 227 228 233 237 234 230 238 238 239 236 231 239 232 233 237 236 239
243 236 235 226 225 224 226 228 228 227 225 231 233 221 225 224 220 218 222 219 224 225 230 239 241 242 241 236 239 240 239 239 236 240 245 236 238 237
246 239 234 230 222 220 225 230 229 227 225 224 228 224 224 223 223 221 221 222 227 227 226 232 237 236 240 242 240 235 241 243 240 243 238 243 242 242
243 244 241 232 227 226 225 227 235 231 230 224 230 226 226 226 224 222 225 229 232 231 233 226 229 234 234 239 242 254 247 239 243 243 240 244 247 247
242 241 238 236 235 233 229 227 230 229 229 230 229 225 230 229 227 229 226 230 234 237 238 235 230 230 235 240 242 246 261 257 235 239 244 248 251 254
246 240 237 233 232 231 231 233 231 236 242 239 238 237 230 233 233 230 236 232 233 237 239 238 236 236 237 244 244 240 239 250 251 242 242 244 248 254
259 247 241 238 235 229 229 232 234 235 231 233 233 232 233 231 233 234 233 234 238 235 239 243 243 241 239 236 242 248 245 247 261 263 257 246 241 247
251 250 244 244 245 244 237 229 230 235 237 236 237 237 233 235 233 233 237 237 232 238 240 242 238 237 240 242 244 245 248 247 244 257 264 266 266 255
Wind_Speed_850mb
29 26 21 18 19 20 18 19 14 16 16 18 14 18 17 15 15 13 16 21 20 22 23 25 26 27 28 26 28 28 26 24 23 22 21 18 18 18
23 20 23 19 24 26 22 21 21 18 10 17 16 24 21 19 18 17 16 17 17 19 21 24 25 27 26 27 29 28 28 27 26 26 23 19 17 17
30 27 29 28 24 25 26 25 25 23 16 18 22 26 23 25 20 20 19 14 14 15 18 20 22 23 23 26 28 28 30 30 30 30 28 25 23 21
30 31 32 28 29 34 33 31 27 28 23 27 28 26 26 28 23 20 18 14 13 13 15 17 19 19 19 23 25 27 28 28 28 27 28 26 22 21
36 37 36 35 35 31 33 34 33 30 33 28 26 26 29 30 29 28 25 23 18 16 16 17 16 15 15 16 18 20 21 21 21 21 22 23 22 20
42 44 41 41 40 38 38 41 37 36 34 33 29 32 32 35 31 31 32 28 24 22 21 20 19 18 17 15 15 13 15 15 14 15 15 16 18 18
44 46 46 43 43 43 39 42 46 43 40 38 36 35 36 39 43 35 30 30 33 31 28 28 27 25 24 22 19 16 12 10 7 7 9 10 10 11
50 47 44 47 48 50 52 49 47 49 48 42 43 47 44 45 39 38 35 35 35 36 37 34 32 29 28 29 23 19 17 14 13 11 8 5 4 4
53 54 50 45 48 50 56 54 53 56 51 47 49 49 45 47 40 44 43 42 34 26 36 36 35 35 32 32 36 26 24 22 21 20 17 13 9 5
48 55 54 49 50 47 53 56 56 61 59 54 45 43 43 45 39 32 41 40 32 32 33 38 34 36 32 32 43 34 33 30 29 27 26 23 21 16
45 53 53 53 56 51 51 49 49 54 53 50 49 46 52 49 39 37 39 40 39 39 43 35 32 35 31 32 36 34 36 36 38 35 32 31 31 28
43 54 61 59 54 53 57 51 51 56 48 49 53 53 49 52 48 47 42 46 44 39 42 44 37 33 32 34 33 40 41 40 40 42 40 39 38 42
43 45 49 52 56 55 58 58 50 41 44 39 44 50 54 59 59 57 54 46 46 44 36 45 39 40 35 15 25 35 35 39 43 44 45 47 48 48
39 42 44 47 52 53 56 59 56 51 36 40 40 40 45 48 60 62 60 57 45 45 41 43 36 40 40 36 34 25 31 35 37 42 43 46 48 51
33 39 44 44 43 50 58 59 57 56 46 46 42 42 45 44 42 55 60 59 57 52 51 54 46 37 41 39 36 34 35 34 40 40 39 40 45 54
41 45 41 44 44 49 56 63 63 59 52 44 45 40 41 44 49 50 50 60 53 50 60 59 64 61 47 44 43 41 38 39 35 42 43 41 43 46
35 42 41 49 49 53 61 64 66 62 55 54 54 44 41 42 44 49 51 51 54 60 52 52 68 70 65 60 51 48 45 45 44 39 46 44 46 47
41 51 53 52 50 49 56 65 68 66 61 46 44 42 44 45 45 47 48 53 55 54 54 53 46 47 54 62 70 55 48 48 47 49 54 47 47 47
50 52 62 53 56 52 52 48 59 72 69 55 46 45 45 47 50 52 53 55 59 57 55 57 55 54 52 62 50 53 67 56 47 49 52 53 55 47
67 56 55 55 55 58 52 51 45 51 63 61 66 53 47 48 49 53 58 57 57 57 60 58 64 66 67 59 48 48 48 45 58 57 53 51 53 54
59 61 54 56 53 51 49 46 48 51 49 56 70 74 64 65 63 55 54 60 57 55 61 64 65 64 56 48 54 57 51 52 56 55 52 54 52 51
30 43 56 52 49 53 49 47 47 49 52 56 53 51 52 58 59 60 67 58 52 63 61 54 50 52 52 60 64 60 52 48 58 59 60 66 58 58
40 39 42 51 57 61 65 62 51 50 52 55 57 58 56 59 61 62 68 70 59 56 52 55 58 58 59 57 58 55 57 57 55 62 71 71 68 75
Wind_Direction_850mb
245 241 230 240 241 196 217 201 206 172 180 192 172 175 162 151 136 140 120 113 114 114 114 113 115 114 112 112 108 110 108 98 93 87 82 83 99 137
244 245 236 208 244 208 213 210 204 184 164 182 180 178 170 165 163 149 140 128 127 121 115 112 112 113 116 114 108 106 104 100 96 88 81 78 85 98
232 224 231 220 221 238 208 208 208 201 184 164 174 184 183 166 179 167 152 151 145 140 129 123 116 113 116 113 117 116 114 109 97 86 80 73 78 88
239 227 228 233 226 221 215 209 211 206 200 177 182 192 190 183 190 185 171 178 178 166 156 141 135 132 129 123 120 109 100 93 82 80 81 77 83 88
234 229 226 225 227 224 222 215 212 205 199 190 190 192 191 191 195 194 190 192 188 203 191 182 172 162 154 142 130 117 105 96 85 79 81 84 87 91
242 240 227 223 226 222 223 216 209 205 200 195 194 193 193 201 200 198 206 202 199 220 218 210 204 203 201 186 164 149 128 113 99 88 82 86 87 96
245 246 239 228 230 222 220 221 213 211 208 199 202 197 198 201 210 205 210 211 214 210 219 223 225 223 221 221 206 188 181 162 154 119 99 82 88 96
248 243 240 238 236 235 225 226 225 221 205 206 209 206 209 215 210 209 206 208 213 223 215 221 222 225 223 235 224 215 215 221 218 221 188 146 100 107
251 248 238 233 238 235 223 226 231 224 220 221 215 216 214 223 220 216 213 214 215 222 226 220 222 225 227 231 244 231 230 234 238 237 229 221 213 211
260 243 240 234 230 225 222 223 222 223 225 225 225 220 216 230 228 239 236 223 219 210 233 213 221 228 228 228 246 239 237 239 243 243 241 237 235 229
249 241 238 238 233 230 219 215 216 218 226 226 222 215 221 223 225 212 212 212 215 217 226 211 219 225 226 230 242 241 239 242 243 243 243 245 240 239
251 241 239 239 237 232 225 218 215 217 220 221 220 225 226 225 222 224 214 211 217 220 224 217 213 222 231 235 231 243 238 241 243 242 241 243 242 241
247 236 235 239 238 231 224 221 219 214 218 219 221 226 229 229 226 223 218 214 217 220 224 234 219 220 221 211 230 224 240 239 239 240 241 240 241 240
247 241 239 237 235 229 223 219 218 215 214 218 212 216 221 219 226 226 226 219 216 218 224 230 216 222 226 230 231 232 223 224 237 240 245 246 244 245
245 254 236 238 227 226 224 225 223 223 220 215 219 218 223 224 218 225 224 228 223 212 223 223 218 219 223 230 233 232 232 236 230 233 233 234 246 242
238 239 240 231 226 224 225 222 223 226 218 227 222 224 224 217 217 217 215 224 220 227 228 233 237 234 230 238 238 239 236 231 239 232 233 237 236 239
243 236 235 226 225 224 226 228 228 227 225 231 233 221 225 224 220 218 222 219 224 225 230 239 241 242 241 236 239 240 239 239 236 240 245 236 238 237
246 239 234 230 222 220 225 230 229 227 225 224 228 224 224 223 223 221 221 222 227 227 226 232 237 236 240 242 240 235 241 243 240 243 238 243 242 242
243 244 241 232 227 226 225 227 235 231 230 224 230 226 226 226 224 222 225 229 232 231 233 226 229 234 234 239 242 254 247 239 243 243 240 244 247 247
242 241 238 236 235 233 229 227 230 229 229 230 229 225 230 229 227 229 226 230 234 237 238 235 230 230 235 240 242 246 261 257 235 239 244 248 251 254
246 240 237 233 232 231 231 233 231 236 242 239 238 237 230 233 233 230 236 232 233 237 239 238 236 236 237 244 244 240 239 250 251 242 242 244 248 254
259 247 241 238 235 229 229 232 234 235 231 233 233 232 233 231 233 234 233 234 238 235 239 243 243 241 239 236 242 248 245 247 261 263 257 246 241 247
251 250 244 244 245 244 237 229 230 235 237 236 237 237 233 235 233 233 237 237 232 238 240 242 238 237 240 242 244 245 248 247 244 257 264 266 266 255